Total_Precipitation_Accumulation
0.25 0.29 0.38 0.52 0.45 0.31 0.18 0.07 0.04 0.06 0.07 0.06 0.05 0.06 0.08 0.11 0.18 0.30 0.28 0.24 0.20 0.24 0.40 0.63 0.77 0.82 0.83 0.74 0.60 0.49 0.49 0.55 0.62 0.64 0.65 0.68 0.64 0.56 0.56 0.57 0.65 0.76 0.89 0.84 0.74 0.64 0.50 0.43 0.34
0.25 0.38 0.59 0.68 0.46 0.26 0.12 0.07 0.06 0.07 0.08 0.09 0.08 0.09 0.11 0.16 0.18 0.21 0.30 0.36 0.31 0.33 0.51 0.63 0.81 0.85 0.85 0.79 0.67 0.59 0.55 0.59 0.66 0.70 0.74 0.78 0.73 0.65 0.69 0.69 0.69 0.74 0.80 0.75 0.62 0.59 0.46 0.35 0.29
0.33 0.53 0.81 0.71 0.43 0.25 0.12 0.07 0.07 0.07 0.08 0.11 0.14 0.16 0.20 0.26 0.23 0.28 0.35 0.44 0.50 0.51 0.63 0.80 0.93 0.92 0.91 0.84 0.78 0.73 0.68 0.69 0.74 0.77 0.85 0.87 0.86 0.81 0.85 0.79 0.71 0.66 0.62 0.58 0.50 0.45 0.39 0.32 0.29
0.50 0.82 0.93 0.70 0.37 0.17 0.12 0.09 0.08 0.10 0.10 0.12 0.19 0.29 0.35 0.32 0.29 0.35 0.43 0.49 0.62 0.70 0.80 1.02 1.18 1.15 1.06 0.96 0.90 0.88 0.83 0.80 0.81 0.84 0.92 0.99 1.01 0.98 0.94 0.79 0.64 0.56 0.52 0.51 0.47 0.38 0.33 0.31 0.28
0.78 1.06 0.94 0.61 0.31 0.15 0.10 0.10 0.11 0.13 0.13 0.14 0.22 0.37 0.51 0.44 0.42 0.51 0.56 0.62 0.75 0.82 0.98 1.22 1.39 1.40 1.25 1.12 1.06 1.06 1.04 1.03 0.98 0.95 1.02 1.12 1.12 1.04 0.97 0.75 0.55 0.47 0.48 0.48 0.47 0.43 0.38 0.35 0.31
1.12 1.11 0.88 0.55 0.26 0.16 0.11 0.12 0.14 0.16 0.17 0.20 0.28 0.45 0.63 0.65 0.70 0.80 0.81 0.80 0.93 0.98 1.14 1.38 1.55 1.49 1.40 1.36 1.29 1.29 1.29 1.23 1.16 1.12 1.22 1.26 1.20 1.07 0.94 0.79 0.63 0.50 0.46 0.46 0.45 0.46 0.43 0.38 0.35
1.16 0.97 0.69 0.42 0.25 0.20 0.15 0.13 0.17 0.19 0.22 0.25 0.29 0.55 0.77 0.96 1.07 1.15 1.20 1.20 1.21 1.28 1.44 1.60 1.65 1.53 1.43 1.39 1.39 1.40 1.45 1.46 1.34 1.23 1.25 1.25 1.18 1.04 0.94 0.76 0.70 0.60 0.54 0.50 0.45 0.43 0.45 0.42 0.37
1.16 1.11 0.67 0.41 0.30 0.24 0.20 0.20 0.18 0.22 0.27 0.30 0.37 0.63 0.87 1.07 1.35 1.60 1.62 1.76 1.74 1.76 1.81 1.85 1.90 1.79 1.57 1.43 1.48 1.46 1.42 1.38 1.38 1.29 1.12 1.06 0.99 0.90 0.87 0.67 0.64 0.63 0.58 0.51 0.46 0.43 0.45 0.42 0.33
1.25 1.28 0.75 0.41 0.33 0.28 0.27 0.30 0.25 0.22 0.32 0.43 0.47 0.61 0.90 1.24 1.65 2.10 2.15 2.26 2.30 2.22 2.25 2.16 2.16 2.08 1.98 1.77 1.63 1.64 1.50 1.38 1.31 1.25 1.07 1.00 1.06 0.94 0.74 0.54 0.51 0.53 0.53 0.51 0.47 0.43 0.41 0.34 0.27
1.36 1.12 0.59 0.32 0.31 0.34 0.35 0.39 0.37 0.35 0.41 0.52 0.65 0.71 1.11 1.61 2.00 2.28 2.36 2.30 2.45 2.41 2.45 2.39 2.36 2.33 2.30 2.00 1.83 1.84 1.66 1.46 1.28 1.13 1.13 1.07 1.06 1.02 0.78 0.62 0.50 0.52 0.50 0.50 0.53 0.51 0.43 0.32 0.26
1.10 0.74 0.48 0.39 0.37 0.41 0.45 0.46 0.47 0.51 0.52 0.54 0.63 0.75 1.14 1.70 2.23 2.37 2.57 2.54 2.58 2.73 2.71 2.60 2.55 2.54 2.52 2.37 2.00 1.87 1.71 1.61 1.47 1.25 1.21 1.17 1.19 1.13 0.98 0.85 0.71 0.64 0.52 0.52 0.54 0.55 0.44 0.36 0.32
0.91 0.59 0.55 0.54 0.48 0.54 0.56 0.55 0.53 0.55 0.54 0.53 0.63 0.75 1.09 1.53 2.01 2.39 2.60 2.73 2.58 2.79 2.90 2.78 2.69 2.63 2.62 2.55 2.29 2.00 1.80 1.62 1.49 1.33 1.22 1.26 1.26 1.15 1.01 0.88 0.80 0.73 0.59 0.55 0.55 0.52 0.45 0.37 0.33
0.81 0.61 0.60 0.63 0.62 0.67 0.70 0.65 0.62 0.57 0.55 0.61 0.83 1.03 1.21 1.45 1.76 2.27 2.64 2.75 2.67 2.66 2.94 2.98 2.90 2.75 2.60 2.60 2.49 2.17 1.87 1.63 1.56 1.53 1.37 1.22 1.17 1.10 1.05 0.91 0.89 0.80 0.67 0.62 0.58 0.54 0.52 0.46 0.41
0.68 0.64 0.69 0.75 0.77 0.77 0.87 0.75 0.72 0.68 0.65 0.83 1.02 1.14 1.35 1.56 1.75 2.16 2.50 2.71 2.61 2.53 2.80 3.00 3.12 3.03 2.78 2.54 2.44 2.31 2.07 1.86 1.79 1.69 1.53 1.41 1.29 1.20 1.11 0.98 0.92 0.86 0.73 0.64 0.63 0.60 0.58 0.53 0.47
0.79 0.85 0.88 0.89 0.86 0.83 0.96 0.97 0.75 0.72 0.81 0.90 1.01 1.16 1.36 1.61 1.92 2.20 2.35 2.58 2.76 2.63 2.75 2.95 3.15 3.29 3.13 2.83 2.61 2.48 2.30 2.09 1.94 1.84 1.83 1.70 1.50 1.34 1.26 1.11 0.97 0.90 0.88 0.84 0.80 0.76 0.65 0.55 0.49
1.24 1.20 1.09 0.89 0.84 0.84 1.10 1.12 0.76 0.71 0.85 0.91 1.02 1.17 1.32 1.52 1.83 2.13 2.35 2.57 2.91 2.96 2.96 3.11 3.12 3.28 3.32 3.19 2.92 2.64 2.48 2.29 2.03 1.83 1.83 1.84 1.69 1.54 1.44 1.34 1.19 1.08 1.03 1.01 0.90 0.80 0.76 0.62 0.52
1.38 1.15 0.88 0.79 0.79 0.88 1.03 0.99 0.84 0.76 0.79 0.90 1.01 1.13 1.32 1.43 1.60 1.88 2.18 2.53 2.90 3.07 3.20 3.37 3.36 3.22 3.30 3.41 3.30 2.91 2.62 2.40 2.21 1.95 1.82 1.84 1.84 1.71 1.53 1.36 1.32 1.33 1.23 1.10 1.00 0.84 0.84 0.79 0.64
0.88 0.71 0.61 0.64 0.66 0.74 0.84 0.81 0.86 0.88 0.85 0.82 0.93 1.03 1.22 1.29 1.35 1.56 1.89 2.37 2.83 3.10 3.18 3.31 3.45 3.50 3.53 3.60 3.65 3.39 3.00 2.66 2.44 2.25 2.05 1.94 1.96 1.97 1.83 1.56 1.44 1.45 1.41 1.32 1.20 1.07 0.95 0.89 0.85
0.69 0.63 0.55 0.45 0.46 0.64 0.71 0.78 0.89 0.94 0.85 0.82 0.91 0.96 1.06 1.14 1.21 1.35 1.61 2.00 2.44 2.93 3.04 3.05 3.17 3.37 3.49 3.58 3.57 3.41 3.05 2.86 2.67 2.45 2.31 2.19 2.06 2.06 2.09 1.87 1.72 1.67 1.59 1.52 1.49 1.44 1.29 1.08 1.04
0.77 0.72 0.62 0.53 0.51 0.70 0.75 0.82 0.82 0.86 0.88 0.84 0.84 0.86 0.89 1.03 1.18 1.29 1.48 1.75 1.99 2.47 2.83 2.90 2.98 3.07 3.13 3.18 3.38 3.48 3.33 3.01 2.86 2.76 2.57 2.35 2.19 2.09 2.11 2.13 2.01 1.81 1.75 1.72 1.65 1.56 1.41 1.28 1.21
0.82 0.63 0.60 0.70 0.74 0.82 0.86 0.93 0.84 0.81 0.83 0.78 0.75 0.78 0.77 0.89 1.11 1.23 1.34 1.63 1.80 2.16 2.60 2.79 2.92 3.04 3.00 3.13 3.54 3.76 3.75 3.40 3.08 2.87 2.77 2.60 2.38 2.26 2.12 2.02 2.05 2.00 1.90 1.83 1.80 1.77 1.73 1.59 1.45
0.88 0.51 0.56 0.75 1.05 1.17 0.93 1.13 0.92 0.85 0.79 0.76 0.72 0.76 0.76 0.82 1.00 1.08 1.15 1.44 1.65 1.86 2.21 2.48 2.81 3.05 3.16 3.23 3.40 3.43 3.25 3.04 2.75 2.66 2.64 2.65 2.58 2.37 2.24 2.17 2.10 2.05 1.98 1.87 1.88 1.89 1.87 1.86 1.74
0.78 0.58 0.68 0.86 1.14 1.23 0.81 0.98 0.91 0.82 0.81 0.82 0.79 0.85 0.85 0.84 0.95 1.09 1.14 1.25 1.37 1.63 1.93 2.11 2.37 2.69 2.94 3.08 3.25 3.36 3.16 2.89 2.73 2.69 2.66 2.62 2.60 2.48 2.33 2.24 2.21 2.17 2.08 1.98 1.94 1.96 1.92 1.88 1.84
0.82 1.00 1.06 1.11 1.54 1.62 0.79 0.82 0.88 0.87 0.84 0.79 0.77 0.82 0.84 0.85 0.95 1.04 1.06 1.14 1.22 1.38 1.70 1.86 2.06 2.31 2.61 2.79 2.98 3.21 3.08 2.81 2.54 2.47 2.48 2.43 2.41 2.33 2.22 2.20 2.17 2.12 2.06 1.95 1.87 1.87 1.88 1.85 1.76
1.25 1.75 2.17 2.11 1.99 1.29 0.62 0.77 0.97 0.84 0.74 0.77 0.83 0.81 0.81 0.82 0.87 0.95 1.00 1.14 1.21 1.30 1.42 1.51 1.63 1.81 2.13 2.41 2.53 2.74 2.84 2.78 2.57 2.31 2.27 2.22 2.15 2.06 1.98 2.00 2.02 2.03 1.98 1.94 1.88 1.81 1.71 1.74 1.74
1.24 1.45 1.73 1.55 1.06 0.72 0.63 0.84 0.93 0.75 0.73 0.74 0.79 0.78 0.73 0.77 0.84 0.86 0.91 1.04 1.17 1.26 1.25 1.22 1.30 1.48 1.63 1.84 2.04 2.21 2.29 2.43 2.45 2.30 2.12 2.06 1.95 1.87 1.85 1.88 1.91 1.96 2.00 1.96 1.92 1.83 1.72 1.68 1.65
1.19 1.20 1.02 1.28 0.90 0.76 0.78 0.78 0.78 0.67 0.68 0.68 0.69 0.72 0.73 0.75 0.76 0.82 0.92 0.98 1.03 1.12 1.11 1.09 1.14 1.25 1.32 1.49 1.66 1.89 1.93 1.96 2.06 2.10 2.07 2.02 1.89 1.79 1.80 1.87 1.87 1.82 1.79 1.79 1.81 1.78 1.64 1.54 1.52
0.99 1.01 1.20 1.68 1.45 1.04 0.74 0.70 0.91 0.78 0.74 0.75 0.71 0.74 0.76 0.74 0.76 0.85 0.96 1.02 1.02 1.06 1.06 1.00 1.03 1.11 1.19 1.29 1.45 1.62 1.72 1.79 1.82 1.83 1.82 1.83 1.80 1.68 1.65 1.68 1.75 1.75 1.70 1.68 1.68 1.61 1.52 1.44 1.32
0.94 1.10 1.26 1.32 1.15 1.13 0.89 0.90 0.91 0.78 0.72 0.72 0.69 0.72 0.73 0.72 0.77 0.87 0.96 1.06 1.06 1.01 0.98 0.97 0.93 0.98 1.07 1.15 1.24 1.35 1.44 1.56 1.66 1.64 1.60 1.60 1.60 1.55 1.50 1.53 1.53 1.51 1.49 1.49 1.53 1.48 1.43 1.41 1.33
0.77 0.86 1.06 1.44 1.09 0.87 0.90 0.96 0.80 0.68 0.64 0.65 0.66 0.66 0.67 0.66 0.71 0.80 0.86 0.89 0.92 0.94 0.98 1.00 0.94 0.94 0.96 1.06 1.16 1.21 1.26 1.32 1.44 1.47 1.48 1.45 1.45 1.44 1.41 1.43 1.46 1.42 1.37 1.35 1.36 1.35 1.34 1.36 1.35